Regional Weather Roundup
Issued by NWS

Home | Current Version | Previous Version | Graphics & Text | Print | Product List | Glossary Off
Versions: 1 2 3 4 5 6 7 8 9 10 11 12 13 14 15 16 17 18 19 20 21 22 23 24 25 26 27 28 29 30 31 32 33 34 35 36 37 38 39 40 41 42 43 44 45 46 47 48 49 50

000
ASUS43 KDMX 311407
RWRIA

WEATHER ROUNDUP FOR IOWA
NATIONAL WEATHER SERVICE DES MOINES IA
900 AM CDT FRI JUL 31 2015

NOTE: "FAIR" INDICATES FEW OR NO CLOUDS BELOW 12,000 FEET WITH NO
SIGNIFICANT WEATHER AND/OR OBSTRUCTIONS TO VISIBILITY.

* - THESE STATIONS ARE NOT NWS STATIONS...THUS NOT UNDER NWS
QUALITY CONTROL.  THEY ALSO DO NOT REPORT WEATHER SUCH
AS PRECIPITATION OR FOG.

IAZ001>003-012>014-020>022-031>034-043>046-311500-
   NORTHWEST IOWA

CITY           SKY/WX    TMP DP  RH WIND       PRES   REMARKS
CARROLL *      MOSUNNY   73  68  83 W9        30.16R
CHEROKEE *     SUNNY     72  70  94 CALM      30.16R
DENISON *      SUNNY     72  66  83 CALM      30.14F HAZE
LE MARS *      MOSUNNY   73  68  83 CALM      30.16S
ORANGE CITY *  SUNNY     75  61  60 CALM      30.16S
SHELDON *      SUNNY     72  66  83 CALM      30.16R
SIOUX CITY     SUNNY     73  65  75 E5        30.15S
SPENCER        MOSUNNY   72  61  68 NW5       30.16S
STORM LAKE *   MOSUNNY   75  66  73 CALM      30.17S
$$

IAZ055>058-069>071-079>083-090>094-311500-
   SOUTHWEST IOWA

CITY           SKY/WX    TMP DP  RH WIND       PRES   REMARKS
ATLANTIC *     SUNNY     73  66  78 N5        30.16S
AUDUBON *      SUNNY     73  66  78 NW3       30.17F
CLARINDA *     MOSUNNY   73  70  88 CALM      30.17S
COUNCIL BLFS * SUNNY     77  64  65 SW5       30.16S
CRESTON *      SUNNY     73  66  78 W8        30.18R
HARLAN  *      SUNNY     72  72 100 CALM      30.19S
LAMONI         CLOUDY    73  64  73 W5        30.16R
RED OAK *      SUNNY     75  68  78 CALM      30.16S
SHENANDOAH *   SUNNY     73  66  78 CALM      30.16R
$$

IAZ047>049-059>061-072>074-084-311500-
   CENTRAL IOWA

CITY           SKY/WX    TMP DP  RH WIND       PRES   REMARKS
AMES           MOSUNNY   75  66  73 N3        30.13S
ANKENY *       SUNNY     77  68  73 CALM      30.13S
CHARITON *     MOSUNNY   75  66  73 W6        30.15S
DES MOINES     MOSUNNY   77  65  66 W6        30.13F
GRINNELL*      SUNNY     73  68  83 NW3       30.14S
KNOXVILLE *    SUNNY     73  66  78 NW8       30.13F
MARSHALLTOWN     N/A     73  67  81 NW7       30.12S
PELLA *        SUNNY     75  70  83 W7        30.14F
PERRY *          N/A     75  70  83 W5        30.14F
$$

IAZ004>006-015-016-023>025-035-036-311500-
   NORTH CENTRAL IOWA

CITY           SKY/WX    TMP DP  RH WIND       PRES   REMARKS
ALGONA *       SUNNY     72  63  73 N9        30.15S
CLARION *      MOSUNNY   72  66  83 NW3       30.14S
ESTHERVILLE    SUNNY     70  61  73 NW6       30.15S
FORT DODGE *   SUNNY     73  64  73 CALM      30.15S
MASON CITY     SUNNY     72  63  73 NW8       30.14S
FOREST CITY *  SUNNY     70  61  73 NW6       30.14S
IOWA FALLS *     N/A     73  66  78 W6        30.15R
$$

IAZ007>011-017>019-026>030-037>042-050>054-066-311500-
   NORTHEAST IOWA

CITY           SKY/WX    TMP DP  RH WIND       PRES   REMARKS
CEDAR RAPIDS   SUNNY     73  69  87 NW7       30.10
CHARLES CITY * SUNNY     72  64  78 NW8       30.12S
CLINTON *      SUNNY     73  70  88 W7        30.10S
DECORAH *      SUNNY     72  59  64 NW7       30.09R
DUBUQUE        SUNNY     75  64  68 W7        30.08S
MONTICELLO *   SUNNY     73  68  83 W7        30.09S
OELWEIN *      SUNNY     72  66  83 W7        30.12R
WATERLOO       SUNNY     74  65  73 NW7       30.10S
$$

IAZ064-065-067-068-078-311500-
   EAST CENTRAL IOWA

CITY           SKY/WX    TMP DP  RH WIND       PRES   REMARKS
DAVENPORT      SUNNY     74  67  78 NW8       30.09S
IOWA CITY      SUNNY     76  66  71 NW8       30.11
MT. PLEASANT * SUNNY     79  61  53 W13G21    30.13S HX  80
MUSCATINE *    SUNNY     77  66  69 NW10G16   30.10S
QUAD CITIES    SUNNY     78  65  63 NW13      30.08S HX  80
$$

IAZ062-063-075>077-085>089-095>099-311500-
   SOUTHEAST IOWA

CITY           SKY/WX    TMP DP  RH WIND       PRES   REMARKS
BURLINGTON     SUNNY     77  66  68 NW10      30.11S
FORT MADISON * SUNNY     75  66  73 NW10      30.13S
KEOKUK *       SUNNY     79  66  65 NW8       30.12S HX  81
OSKALOOSA *      N/A     73  66  78 W8        30.14F
CENTERVILLE *  SUNNY     73  66  78 W9        30.17S
OTTUMWA        SUNNY     75  67  76 NW9       30.13R
WASHINGTON *   SUNNY     73  68  83 NW10      30.13S
$$

ABBREVIATIONS USED IN REMARKS
   TC - TEMPERATURES IN CELSIUS
  WCI - WIND CHILL INDEX
   HX - HEAT INDEX
  VSB - VISIBILITY
$$




USA.gov is the U.S. government's official web portal to all federal, state and local government web resources and services.